Regional Weather Roundup
Issued by NWS

Home | Current Version | Previous Version | Graphics & Text | Print | Product List | Glossary On
Versions: 1 2 3 4 5 6 7 8 9 10 11 12 13 14 15 16 17 18 19 20 21 22 23 24 25 26 27 28 29 30 31 32 33 34 35 36 37 38 39 40 41 42 43 44 45 46 47 48 49 50
000
ASUS45 KABQ 082110
RWRNM
NEW MEXICO REGIONAL WEATHER ROUNDUP
NATIONAL WEATHER SERVICE ALBUQUERQUE NM
200 PM MST MON FEB 08 2016

NOTE: "FAIR" MEANS FEW OR NO CLOUDS BELOW 12,000 FEET AGL WITH NO
       SIGNIFICANT WEATHER OR OBSTRUCTIONS TO VISION.

      THIS PRODUCT IS RELEASED AS TWO VERSIONS.  ONE VERSION NEAR
      THE TOP OF THE HOUR CONTAINING PRELIMINARY DATA FROM ALBUQUERQUE
      AND OTHER STATIONS.  A FINAL VERSION WITH ADDITIONAL DATA IS
      ISSUED ABOUT 10 MINUTES AFTER THE HOUR.

NMZ501-503-504-510>518-082200-
NORTHWEST PLATEAU/NORTHCENTRAL MOUNTAINS

CITY           SKY/WX    TMP DP  RH WIND       PRES   REMARKS
FARMINGTON     SUNNY     46  22  38 CALM      30.42F
LOS ALAMOS     MOSUNNY   47  14  26 E7        30.41S
SANTA FE       SUNNY     55  15  20 N13G22    30.36F
TAOS           CLOUDY    48  21  34 N13       30.39F
ANGEL FIRE     FAIR      42  23  48 NE5       30.40S

$$
NMZ402-403-502-505>509-082200-
WESTCENTRAL MOUNTAINS/SOUTHWEST MOUNTAINS

CITY           SKY/WX    TMP DP  RH WIND       PRES   REMARKS
GALLUP         SUNNY     53  18  25 VRB3      30.41F
GRANTS         SUNNY     57  16  20 N16G22    30.42S
SILVER CITY      N/A     61  16  17 SE3       30.35F

$$
NMZ407-409-411-412-082200-
SOUTHERN DESERTS

CITY           SKY/WX    TMP DP  RH WIND       PRES   REMARKS
LORDSBURG      FAIR      63  18  17 SE16      30.31F
DEMING         SUNNY     62  16  16 E3        30.32F
LAS CRUCES     SUNNY     59  17  19 SE6       30.34F
HOLLOMAN AFB   SUNNY     57  19  22 CALM      30.32F
ALAMOGORDO     SUNNY     55  18  22 NW5       30.34F
T OR C         SUNNY     59  15  18 CALM      30.32F

$$
NMZ519>523-082200-
CENTRAL VALLEYS/CENTRAL HIGHLANDS

CITY           SKY/WX    TMP DP  RH WIND       PRES   REMARKS
ALBUQUERQUE    SUNNY     56  17  21 N5        30.36F
DOUBLE EAGLE   SUNNY     54  18  24 CALM      30.37F
MORIARTY ARPT  FAIR      56  10  15 NW10G17   30.36F
CLINES CORNERS SUNNY     49  21  33 N13       30.34F
BELEN          FAIR      58  13  17 N7        30.35F
SOCORRO        FAIR      60  15  17 N9        30.35F

$$
NMZ524>526-539-540-082200-
SOUTHCENTRAL MOUNTAINS

CITY           SKY/WX    TMP DP  RH WIND       PRES   REMARKS
RUIDOSO          N/A     57  10  15 N12G17    30.37S

$$
NMZ527>531-082200-
NORTHEAST HIGHLANDS/NORTHEAST PLAINS

CITY           SKY/WX    TMP DP  RH WIND       PRES   REMARKS
LAS VEGAS      SUNNY     49  24  37 SE14      30.36R
RATON          SUNNY     49  17  28 VRB5      30.34F
CLAYTON        SUNNY     49  19  30 N9        30.35F

$$
NMZ532>537-082200-
EASTCENTRAL PLAINS

CITY           SKY/WX    TMP DP  RH WIND       PRES   REMARKS
TUCUMCARI      SUNNY     51  15  23 VRB3      30.37F
CANNON AFB     SUNNY     49  15  26 VRB3      30.37F
CLOVIS AIRPORT SUNNY     48  18  29 W8        30.39F

$$
NMZ028-029-538-082200-
SOUTHEAST PLAINS

CITY           SKY/WX    TMP DP  RH WIND       PRES   REMARKS
ROSWELL        SUNNY     50  15  24 VRB7      30.38F
ARTESIA        SUNNY     50  14  23 SE8G20    30.39F
CARLSBAD       SUNNY     51  11  20 SE10G16   30.38F
HOBBS          SUNNY     50   9  18 S3        30.41F


$$



USA.gov is the U.S. government's official web portal to all federal, state and local government web resources and services.